Regional Weather Roundup
Issued by NWS

Home | Current Version | Previous Version | Text Only | Print | Product List | Glossary Off
Versions: 1 2 3 4 5 6 7 8 9 10 11 12 13 14 15 16 17 18 19 20 21 22 23 24 25 26 27 28 29 30 31 32 33 34 35 36 37 38 39 40 41 42 43 44 45 46 47 48 49 50

000
ASUS43 KMPX 270701
RWRMN
WEATHER ROUNDUP FOR MINNESOTA
NATIONAL WEATHER SERVICE TWIN CITIES/CHANHASSEN MN
100 AM CST TUE JAN 27 2015


NOTE: "FAIR" INDICATES FEW OR NO CLOUDS BELOW 12,000 FEET WITH NO
SIGNIFICANT WEATHER AND/OR OBSTRUCTIONS TO VISIBILITY. N/A MEANS
CURRENT SKY AND/OR WEATHER CONDITIONS ARE NOT AVAILABLE.

MNZ060>063-068>070-270800-
   Twin Cities Metro

CITY           SKY/WX    TMP DP  RH WIND       PRES   REMARKS
TWIN CITIES    CLOUDY    35  27  72 N7        30.01R WCI  29
ST PAUL        CLOUDY    35  27  72 N8        30.02R WCI  29
CRYSTAL        CLOUDY    36  27  69 N8        30.00R
BLAINE         CLOUDY    36  28  75 N8        30.01R
LAKEVILLE      CLOUDY    34  28  80 NW5       30.00R WCI  30
EDEN PRAIRIE   CLOUDY    35  29  78 NW5       30.00R WCI  31
SOUTH ST PAUL  CLOUDY    36  27  70 N7        30.01R
LAKE ELMO      CLOUDY    34  30  86 N7        30.01R WCI  28
$$
MNZ001>005-007-008-013>017-022>024-027-028-270800-
   Northwest Minnesota

CITY           SKY/WX    TMP DP  RH WIND       PRES   REMARKS
BEMIDJI        CLOUDY    26  24  93 W6        30.01R WCI  19
HALLOCK        CLOUDY    25  23  93 SE5       30.02S FOG     WCI  19
ROSEAU         CLOUDY    23  19  86 SW3       30.03R FOG
WARROAD        CLOUDY    23  19  86 CALM      30.03R
THIEF RVR FALL CLOUDY    25  23  93 CALM      30.03S
CROOKSTON        N/A     27  27 100 CALM      30.04F
FOSSTON        CLOUDY    25  23  93 CALM      30.03R
DETROIT LAKES  CLOUDY    28  28 100 N3        30.03R FOG
MOORHEAD       CLOUDY    28  28 100 CALM      30.06R
PARK RAPIDS    CLOUDY    28  25  88 VRB5      30.01R WCI  23
MAHNOMEN       CLOUDY    27  25  94 CALM      30.02S
$$
MNZ006-009>011-018-025>026-270800-
   North Central Minnesota

CITY           SKY/WX    TMP DP  RH WIND       PRES   REMARKS
BAUDETTE       CLOUDY    24  20  84 W5        30.01R WCI  18
FLAG ISLAND    CLOUDY    21  19  93 W6        30.01R WCI  14
INTL FALLS     CLOUDY    24  20  84 NW5       30.00R WCI  18
WASKISH        CLOUDY    27  23  86 CALM      30.02R
BIG FORK       CLOUDY    27  21  80 CALM      30.00S
LONGVILLE      CLOUDY    28  25  86 CALM      30.01R
GRAND RAPIDS   CLOUDY    27  21  80 NW6       30.00R WCI  20
CRANE LAKE     CLOUDY    21  21 100 CALM      30.02R
ORR            CLOUDY    25  21  86 CALM      29.98R
COOK           CLOUDY    25  21  86 CALM      30.00R
WALKER         CLOUDY    28  24  87 N3        30.00R
$$
MNZ012-019>021-037-270800-
   Northeast Minnesota

CITY           SKY/WX    TMP DP  RH WIND       PRES   REMARKS
DULUTH         CLOUDY    27  22  81 NW8       29.98R WCI  19
ELY            CLOUDY    21  19  93 CALM      29.99R
HIBBING        CLOUDY    27  22  81 NW7       29.99R WCI  19
EVELETH        CLOUDY    27  21  80 NW7       30.00R WCI  19
DULUTH HARBOR  CLOUDY    30  25  80 CALM      30.03R
TWO HARBORS    CLOUDY    28  23  80 CALM      29.97R
SILVER BAY     CLOUDY    27  21  80 N3        29.98R
GRAND MARAIS     N/A     26  21  81 N3        30.01R
G MARAIS ARPRT MOCLDY    14  10  85 N5        29.95R WCI   6
$$
MNZ029>031-032-039>041-046>048-054>057-064-270800-
   West Central Minnesota

CITY           SKY/WX    TMP DP  RH WIND       PRES   REMARKS
FERGUS FALLS   CLOUDY    27  27 100 N5        30.06S WCI  21
WHEATON        CLEAR     25  25 100 CALM      30.07R
MORRIS         CLOUDY    28  28 100 N8        30.03R WCI  20
ALEXANDRIA     CLOUDY    28  26  92 N5        30.03R WCI  23
ELBOW LAKE     CLOUDY    28  27  98 CALM      30.03R
WADENA         CLOUDY    27  25  93 NW6       30.02R WCI  20
GLENWOOD       CLOUDY    28  27  93 N3        30.03R
APPLETON       CLEAR     28  27  93 CALM      30.04R
BENSON         CLOUDY    30  28  93 CALM      30.04R
ORTONVILLE     MOCLDY    28  27  93 CALM      30.05R FOG
MADISON        FOG       34  34 100 CALM      30.05R VSB 1/2
WILLMAR        CLOUDY    32  28  86 N8        30.05R WCI  25
$$
MNZ033>034-036-042>043-049>051-058-059-270800-
   Central Minnesota

CITY           SKY/WX    TMP DP  RH WIND       PRES   REMARKS
ST CLOUD       CLOUDY    33  26  75 NW7       30.02R WCI  27
SAUK CENTRE    CLOUDY    31  28  88 N6        30.03R WCI  25
PAYNESVILLE    CLOUDY    29  27  92 W6        30.03R WCI  23
AITKIN         CLOUDY    32  25  74 NW5       30.00R WCI  27
PINE RIVER     CLOUDY    28  25  86 NW5       30.04R WCI  23
BRAINERD       CLOUDY    30  25  81 N6        30.01R WCI  24
STAPLES        CLOUDY    28  25  86 NW5       30.02R WCI  23
LONG PRAIRIE   CLOUDY    30  27  86 N3        30.02S
LITTLE FALLS   CLOUDY    32  27  80 CALM      30.03R
LITCHFIELD     CLOUDY    34  30  86 NW6       30.03R WCI  29
BUFFALO        CLOUDY    34  28  79 NW6       30.02R WCI  29
MAPLE LAKE     CLOUDY    35  30  82 N8        30.02R WCI  28
$$
MNZ037-044-045-052-053-270800-
   East Central Minnesota

CITY           SKY/WX    TMP DP  RH WIND       PRES   REMARKS
PRINCETON      CLOUDY    36  27  69 NW8       30.01S
MORA           CLOUDY    32  25  74 N5        30.02R WCI  27
CAMBRIDGE      CLOUDY    36  25  64 NW5       30.00R
RUSH CITY      CLOUDY    32  26  78 N6        30.01R WCI  26
MOOSE LAKE     CLOUDY    30  23  74 N6        30.00R WCI  24
HINCKLEY       CLOUDY    32  27  80 N8        30.01R WCI  25
CLOQUET        CLOUDY    27  21  80 N9G17     30.00R WCI  17
MCGREGOR       CLOUDY    30  27  86 N5        30.01R WCI  25
$$
MNZ071>073-080-081-089-090-097-098-270800-
   Southwest Minnesota

CITY           SKY/WX    TMP DP  RH WIND       PRES   REMARKS
MONTEVIDEO     CLEAR     28  28 100 NW5       30.05R WCI  23
GRANITE FALLS  CLEAR     30  29  96 NW5       30.06R WCI  25
CANBY          CLOUDY    30  29  96 NW3       30.05S
MARSHALL       CLEAR     30  28  93 N5        30.05S WCI  25
REDWOOD FALLS  CLOUDY    32  29  88 NW3       30.03S
OLIVIA         CLOUDY    30  28  93 N5        30.03R WCI  25
PIPESTONE      CLEAR     32  30  93 CALM      30.02R
WINDOM         PTCLDY    30  30 100 NW9       30.02S WCI  22
WORTHINGTON    CLEAR     30  28  93 NW6       30.03R WCI  24
JACKSON        PTCLDY    32  30  93 NW9       30.03R WCI  24
TRACY          PTCLDY    32  31  96 NW3       30.04R
SLAYTON        MOCLDY    32  31  96 CALM      30.04R
$$
MNZ065>067-074>077-082>085-091>093-270800-
   South Central Minnesota

CITY           SKY/WX    TMP DP  RH WIND       PRES   REMARKS
MANKATO        CLOUDY    34  28  80 NW8       30.02R WCI  27
NEW ULM        CLEAR     30  28  93 N8        30.02S WCI  23
ST JAMES       CLEAR     32  30  93 W7        30.03S WCI  26
FAIRMONT       CLEAR     32  27  80 NW7       30.01R WCI  26
GLENCOE        CLOUDY    35  32  90 NW6       30.01S WCI  29
FARIBAULT      CLOUDY    34  30  86 NW5       30.00R WCI  30
OWATONNA       CLOUDY    34  30  86 NW5       30.00R WCI  30
WASECA         CLOUDY    32  30  93 NW5       30.02R WCI  27
ALBERT LEA     PTCLDY    34  30  86 NW6       29.99R WCI  29
$$
MNZ078>079-086>088-094>096-270800-
   Southeast Minnesota

CITY           SKY/WX    TMP DP  RH WIND       PRES   REMARKS
ROCHESTER      CLOUDY    34  30  85 NW14      29.97R WCI  25
RED WING       CLOUDY    37  28  70 N3        29.99R
STANTON        CLOUDY    35  31  83 NW8       29.98R WCI  29
DODGE CENTER   CLOUDY    34  30  86 NW12      29.97S WCI  25
WINONA         CLOUDY    32  30  93 N5        30.00R WCI  27
AUSTIN         CLOUDY    34  30  86 NW6       29.98R WCI  29
PRESTON        CLOUDY    34  29  82 NW8       29.96R WCI  27
$$
ABBREVIATIONS USED IN REMARKS
   TC - TEMPERATURES IN CELSIUS
  WCI - WIND CHILL INDEX
   HX - HEAT INDEX
  VSB - VISIBILITY
$$


USA.gov is the U.S. government's official web portal to all federal, state and local government web resources and services.